User: anonymous   Login
Location: Unspecified
(0.0000°N, 0.0000°E)
Time: 19:04:56
(UTC+00:00)
Language:

GOES 1 - Orbit

View from above orbital plane
View from above orbital plane
View from above satellite
View from above satellite

Ground track
Ground track

The orbit data is extracted from the following two-line orbital elements,

1  8366U 75100A   19085.38808010 -.00000061  00000-0  00000+0 0  9994
2  8366  10.8910 310.6179 0005007 342.9309 274.7456  1.00313652158733
Epoch (UTC): 26 March 2019 09:18:50
Eccentricity: 0.0005007
inclination: 10.8910°
perigee height: 35753 km
apogee height: 35795 km
right ascension of ascending node: 310.6179°
argument of perigee: 342.9309°
revolutions per day: 1.00313652
mean anomaly at epoch: 274.7456°
orbit number at epoch: 15873

The dashed part of the orbit path shows where the satellite is in the earth's shadow,  

DLR